TimeMST,TemperatureF,Dew PointF,Humidity,Sea Level PressureIn,VisibilityMPH,Wind Direction,Wind SpeedMPH,Gust SpeedMPH,PrecipitationIn,Events,Conditions,WindDirDegrees,DateUTC
12:15 AM,41.0,21.7,46,29.39,10.0,WSW,6.9,-,N/A,,Overcast,250,2014-01-30 07:15:00
12:35 AM,41.2,22.3,47,29.40,10.0,WSW,8.1,-,N/A,,Overcast,250,2014-01-30 07:35:00
12:55 AM,41.9,23.0,47,29.41,10.0,WSW,9.2,-,N/A,,Overcast,250,2014-01-30 07:55:00
1:15 AM,42.3,23.7,48,29.42,10.0,WSW,5.8,-,N/A,,Overcast,250,2014-01-30 08:15:00
1:35 AM,42.3,24.4,49,29.43,10.0,West,4.6,-,N/A,,Overcast,260,2014-01-30 08:35:00
1:55 AM,45.5,26.4,47,29.45,10.0,West,11.5,-,N/A,,Overcast,280,2014-01-30 08:55:00
2:15 AM,50.9,27.5,40,29.45,10.0,WNW,16.1,20.7,N/A,,Overcast,290,2014-01-30 09:15:00
2:35 AM,52.0,28.0,40,29.45,10.0,WNW,15.0,21.9,N/A,,Mostly Cloudy,300,2014-01-30 09:35:00
2:55 AM,52.5,28.4,39,29.47,10.0,WNW,17.3,27.6,N/A,,Mostly Cloudy,300,2014-01-30 09:55:00
3:15 AM,51.8,30.4,44,29.48,10.0,NW,31.1,40.3,N/A,,Clear,310,2014-01-30 10:15:00
3:35 AM,45.9,32.9,61,29.51,10.0,NNW,32.2,43.7,N/A,,Scattered Clouds,330,2014-01-30 10:35:00
3:55 AM,43.5,31.1,62,29.54,10.0,NNW,24.2,32.2,N/A,,Scattered Clouds,330,2014-01-30 10:55:00
4:15 AM,42.1,31.3,66,29.56,10.0,NNW,19.6,29.9,N/A,,Clear,330,2014-01-30 11:15:00
4:35 AM,41.4,31.5,68,29.56,10.0,NW,21.9,28.8,N/A,,Clear,320,2014-01-30 11:35:00
4:55 AM,40.3,31.8,72,29.57,10.0,NW,21.9,27.6,N/A,,Clear,320,2014-01-30 11:55:00
5:15 AM,40.1,31.6,72,29.58,10.0,NW,20.7,27.6,N/A,,Clear,320,2014-01-30 12:15:00
5:35 AM,39.2,31.1,73,29.59,10.0,NW,19.6,24.2,N/A,,Clear,320,2014-01-30 12:35:00
5:55 AM,39.2,30.9,72,29.60,10.0,NW,18.4,25.3,N/A,,Clear,320,2014-01-30 12:55:00
6:15 AM,38.8,30.9,73,29.60,10.0,NW,15.0,25.3,N/A,,Scattered Clouds,320,2014-01-30 13:15:00
6:35 AM,38.3,30.2,73,29.61,10.0,NW,16.1,20.7,N/A,,Scattered Clouds,310,2014-01-30 13:35:00
6:55 AM,38.3,29.7,71,29.62,10.0,NW,12.7,19.6,N/A,,Scattered Clouds,320,2014-01-30 13:55:00
7:15 AM,37.9,29.3,71,29.63,10.0,NW,15.0,19.6,N/A,,Mostly Cloudy,320,2014-01-30 14:15:00
7:35 AM,38.3,29.7,71,29.63,10.0,NNW,15.0,21.9,N/A,,Mostly Cloudy,330,2014-01-30 14:35:00
7:55 AM,39.4,29.8,69,29.65,10.0,NNW,16.1,24.2,N/A,,Mostly Cloudy,330,2014-01-30 14:55:00
8:15 AM,41.0,29.8,64,29.65,10.0,NNW,18.4,25.3,N/A,,Mostly Cloudy,330,2014-01-30 15:15:00
8:35 AM,41.2,29.8,64,29.66,10.0,NNW,15.0,23.0,N/A,,Clear,340,2014-01-30 15:35:00
8:55 AM,42.8,30.6,62,29.68,10.0,NNW,16.1,20.7,N/A,,Clear,330,2014-01-30 15:55:00
9:15 AM,44.1,30.0,58,29.68,10.0,NNW,19.6,23.0,N/A,,Clear,340,2014-01-30 16:15:00
9:35 AM,44.8,29.8,56,29.68,10.0,North,16.1,24.2,N/A,,Clear,350,2014-01-30 16:35:00
9:55 AM,46.0,29.8,53,29.68,10.0,North,15.0,21.9,N/A,,Clear,360,2014-01-30 16:55:00
10:15 AM,45.9,29.5,53,29.70,10.0,North,16.1,20.7,N/A,,Clear,360,2014-01-30 17:15:00
10:35 AM,45.5,29.3,53,29.71,10.0,North,12.7,-,N/A,,Clear,10,2014-01-30 17:35:00
10:55 AM,48.2,30.4,50,29.71,10.0,North,13.8,18.4,N/A,,Clear,360,2014-01-30 17:55:00
11:15 AM,45.7,31.3,57,29.72,10.0,NNE,11.5,-,N/A,,Clear,30,2014-01-30 18:15:00
11:35 AM,45.7,31.3,57,29.72,10.0,ENE,12.7,17.3,N/A,,Clear,60,2014-01-30 18:35:00
11:55 AM,46.4,30.9,55,29.72,10.0,East,10.4,-,N/A,,Clear,80,2014-01-30 18:55:00
12:15 PM,46.0,30.0,54,29.72,10.0,ENE,12.7,17.3,N/A,,Scattered Clouds,70,2014-01-30 19:15:00
12:35 PM,45.0,28.8,53,29.72,10.0,NE,9.2,-,N/A,,Scattered Clouds,50,2014-01-30 19:35:00
12:55 PM,45.5,28.2,51,29.70,10.0,NE,12.7,18.4,N/A,,Mostly Cloudy,50,2014-01-30 19:55:00
1:15 PM,43.7,27.1,52,29.72,10.0,ENE,12.7,17.3,N/A,,Scattered Clouds,70,2014-01-30 20:15:00
1:35 PM,44.4,26.6,50,29.71,10.0,East,12.7,17.3,N/A,,Mostly Cloudy,90,2014-01-30 20:35:00
1:55 PM,43.3,25.9,50,29.71,10.0,East,12.7,18.4,N/A,,Scattered Clouds,80,2014-01-30 20:55:00
2:15 PM,42.3,24.8,50,29.72,10.0,East,10.4,-,N/A,,Scattered Clouds,90,2014-01-30 21:15:00
2:35 PM,41.9,23.7,49,29.72,10.0,East,11.5,-,N/A,,Scattered Clouds,80,2014-01-30 21:35:00
2:55 PM,41.7,22.6,47,29.73,10.0,East,15.0,-,N/A,,Scattered Clouds,90,2014-01-30 21:55:00
3:15 PM,41.0,22.6,48,29.75,10.0,East,15.0,-,N/A,,Mostly Cloudy,80,2014-01-30 22:15:00
3:35 PM,39.7,22.3,50,29.76,10.0,East,11.5,17.3,N/A,,Overcast,100,2014-01-30 22:35:00
3:55 PM,39.2,22.1,50,29.77,10.0,East,13.8,-,N/A,,Overcast,100,2014-01-30 22:55:00
4:15 PM,38.3,22.1,52,29.77,10.0,ESE,12.7,-,N/A,,Mostly Cloudy,110,2014-01-30 23:15:00
4:35 PM,37.8,22.1,53,29.77,10.0,ESE,11.5,17.3,N/A,,Overcast,110,2014-01-30 23:35:00
4:55 PM,36.7,21.9,55,29.78,10.0,ESE,11.5,-,N/A,,Overcast,110,2014-01-30 23:55:00
5:15 PM,36.0,21.6,56,29.79,10.0,East,9.2,-,N/A,,Overcast,100,2014-01-31 00:15:00
5:35 PM,33.6,19.6,56,29.80,10.0,East,12.7,-,N/A,,Overcast,90,2014-01-31 00:35:00
5:55 PM,32.7,19.4,58,29.81,10.0,East,12.7,-,N/A,,Overcast,80,2014-01-31 00:55:00
6:15 PM,32.0,19.4,60,29.82,10.0,East,12.7,18.4,N/A,,Overcast,80,2014-01-31 01:15:00
6:35 PM,31.5,20.3,63,29.82,10.0,East,11.5,17.3,N/A,,Overcast,90,2014-01-31 01:35:00
6:55 PM,30.0,22.8,75,29.83,7.0,East,15.0,19.6,N/A,Snow,Light Snow,80,2014-01-31 01:55:00
7:15 PM,28.6,24.6,85,29.84,4.0,East,12.7,-,N/A,Snow,Light Snow,80,2014-01-31 02:15:00
7:35 PM,27.7,25.7,92,29.83,1.5,East,11.5,-,N/A,Snow,Light Snow,80,2014-01-31 02:35:00
7:55 PM,26.6,25.2,94,29.83,1.0,ENE,9.2,-,N/A,Snow,Light Snow,70,2014-01-31 02:55:00
8:15 PM,26.4,25.3,96,29.83,1.2,East,9.2,-,N/A,Snow,Snow,80,2014-01-31 03:15:00
8:35 PM,26.2,25.3,96,29.83,1.5,East,11.5,-,N/A,Snow,Light Snow,80,2014-01-31 03:35:00
8:55 PM,25.7,24.8,96,29.83,2.0,East,11.5,-,N/A,Snow,Light Snow,90,2014-01-31 03:55:00
9:15 PM,24.8,23.4,94,29.83,2.0,East,12.7,18.4,N/A,Snow,Light Snow,80,2014-01-31 04:15:00
9:35 PM,24.6,23.2,94,29.83,2.5,East,12.7,-,N/A,Snow,Light Snow,80,2014-01-31 04:35:00
9:55 PM,24.3,22.8,94,29.83,2.0,ENE,11.5,-,N/A,Snow,Light Snow,70,2014-01-31 04:55:00
10:15 PM,23.7,22.1,94,29.83,1.5,East,11.5,-,N/A,Snow,Light Snow,80,2014-01-31 05:15:00
10:35 PM,23.5,22.1,94,29.83,1.0,ENE,11.5,-,N/A,Snow,Snow,70,2014-01-31 05:35:00
10:55 PM,23.0,21.7,95,29.83,1.2,ENE,12.7,17.3,N/A,Snow,Light Snow,70,2014-01-31 05:55:00
11:15 PM,23.0,21.9,96,29.82,1.5,ENE,8.1,-,N/A,Snow,Light Snow,70,2014-01-31 06:15:00
11:35 PM,22.8,21.4,94,29.82,1.0,East,12.7,-,N/A,Snow,Snow,90,2014-01-31 06:35:00
11:55 PM,22.5,21.2,95,29.83,0.8,East,10.4,-,N/A,Snow,Snow,80,2014-01-31 06:55:00